User: anonymous   Login
Location: Fort Frances
(48.6170°N, 93.4170°W)
Time: 22:36:56
(UTC-05:00)
Language:

CZ-2C R/B - Orbit

View from above orbital plane
View from above orbital plane
View from above satellite
View from above satellite

Ground track
Ground track

The orbit data is extracted from the following two-line orbital elements,

1 36089U 09061B   15182.55105172  .00000078  00000-0  30490-4 0  9990
2 36089 098.0703 205.0117 0083674 092.3853 067.7546 14.49460861297892
Epoch (UTC): 01 July 2015 13:13:30
Eccentricity: 0.0083674
inclination: 98.0703°
perigee height: 668 km
apogee height: 787 km
right ascension of ascending node: 205.0117°
argument of perigee: 92.3853°
revolutions per day: 14.49460861
mean anomaly at epoch: 67.7546°
orbit number at epoch: 29789

The dashed part of the orbit path shows where the satellite is in the earth's shadow,  

DLR